Location: Vancouver
(49.2500°N, 123.1330°W)
Time: 07:27:51
(UTC-08:00)

Daily predictions for brighter satellites

Satellite Brightness Start Highest point End
(mag) Time Altitude Azimuth Time Altitude Azimuth Time Altitude Azimuth
SL-16 R/B 2.8 18:03:10 10° NNW 18:08:24 36° NE 18:13:34 10° ESE
NOAA 12 4.2 18:04:09 10° SSE 18:09:23 64° ENE 18:14:40 10° N
Cosmos 2227 Rocket 3.0 18:04:40 10° SSE 18:09:34 31° ESE 18:14:28 10° NE
H-2A R/B 3.4 18:08:00 10° SE 18:11:33 34° ENE 18:15:06 10° N
MOS 1-B Rocket 4.0 18:05:54 10° SSE 18:12:12 74° ENE 18:17:55 10° NNW
Cosmos 1825 3.7 18:10:59 10° SSW 18:14:33 41° WNW 18:18:11 10° N
Cosmos 1624 Rocket 4.1 18:12:46 10° NNW 18:18:03 88° WSW 18:23:16 10° SSE
COSMO-SKYMED 1 2.6 18:15:06 10° NNE 18:19:26 65° ESE 18:23:45 10° S
FENGYUN 3A 3.7 18:14:32 10° SSE 18:19:57 87° ENE 18:25:24 10° NNW
MONITOR-E 4.0 18:17:44 10° SSE 18:20:45 84° ENE 18:23:49 10° NNW
Cosmos 1680 Rocket 3.8 18:17:16 10° SSW 18:22:35 75° WNW 18:27:57 10° NNE
Cosmos 2297 Rocket 2.8 18:18:46 10° S 18:23:49 35° ESE 18:28:53 10° NE
Cosmos 1812 3.3 18:22:25 10° N 18:26:03 36° ENE 18:29:38 10° SE
Lacrosse 5 2.7 18:21:08 10° WNW 18:26:04 53° SW 18:30:58 10° SSE
Cosmos 2285 Rocket 4.0 18:25:35 10° S 18:31:48 64° ESE 18:38:08 10° NNE
NOSS 3-2 (A) 3.6 18:26:08 10° SSW 18:31:57 57° ESE 18:38:27 10° NE
ATLAS 3B R/B 2.8 18:25:02 10° SW 18:32:16 86° SE 18:39:14 10° NE
ALOS 2.7 18:28:54 10° S 18:33:33 68° WSW 18:38:13 10° NNW
Cosmos 44 3.4 18:32:55 10° NW 18:37:50 64° NE 18:42:59 10° SE
ERS-2 2.3 18:34:39 10° SE 18:38:14 50° ENE 18:41:50 10° N
Cosmos 2333 Rocket 3.5 18:34:12 10° NW 18:39:36 45° WSW 18:44:55 10° S
Thor Agena Rocket 4.5 18:38:37 10° NE 18:42:47 24° E 18:46:53 10° SSE
Cosmos 2034 Rocket 4.5 18:39:10 10° N 18:45:09 40° ENE 18:51:05 10° SE
Cosmos 1939 Rocket 4.4 18:44:48 16° E 18:46:01 18° ENE 18:48:52 10° NNE
Cosmos 1674 Rocket 3.5 18:42:16 10° N 18:46:38 65° ENE 18:50:56 10° SSE
USA 238 DEB 3.9 18:40:28 10° SW 18:47:23 80° NW 18:54:26 10° NE
USA 238 3.9 18:40:34 10° SW 18:47:29 80° NW 18:54:31 10° NE
ATLAS CENTAUR R/B 3.4 18:46:34 10° N 18:48:40 14° NNE 18:50:13 12° NE
Cosmos 1633 3.4 18:45:39 10° SSE 18:48:44 28° E 18:51:51 10° NNE
Cosmos 2082 3.9 18:45:00 10° S 18:50:23 49° ESE 18:55:48 10° NE
EO 1 Del DPAF 3.1 18:48:02 10° NNE 18:51:53 70° ESE 18:55:41 10° S
Envisat 3.3 18:51:35 10° SE 18:56:21 43° ENE 19:01:09 10° N
Cosmos 1908 Rocket 4.1 18:53:20 10° SSE 18:57:26 37° E 19:01:34 10° NNE
CZ-4C R/B 3.7 18:51:48 10° NW 18:57:38 32° NNE 19:02:08 18° ENE
HJ-1C 3.5 18:55:22 10° SSE 18:58:43 55° ENE 19:02:04 10° N
ARGOS Delta rocket 4.5 18:57:54 10° NNE 19:02:23 32° E 19:06:37 10° SSE
SeaSat 1 2.4 18:59:43 10° SE 19:04:39 76° ENE 19:09:36 10° NNW
Cosmos 1733 Rocket 3.0 19:01:35 10° S 19:05:54 84° W 19:10:15 10° N
Resurs 1-3 4.3 19:04:01 22° ESE 19:05:57 31° ENE 19:09:51 10° N
Cosmos 921 Rocket 3.4 19:03:22 10° N 19:07:45 45° ENE 19:10:35 20° SE
Landsat 4 4.2 19:04:14 10° N 19:07:56 62° WNW 19:11:38 10° SSW
Okean 3 3.4 19:06:07 10° N 19:10:20 88° WSW 19:14:30 10° S
USA 215 3.6 19:06:09 18° ENE 19:10:46 45° SE 19:16:58 10° SSW
Aureole 3 3.9 19:06:32 10° S 19:12:31 79° E 19:17:11 10° NNE
Resurs 01 Rocket 2.2 19:10:56 25° ESE 19:12:49 36° ENE 19:16:53 10° N
H-2A R/B 4.0 19:14:34 13° NE 19:14:34 13° NE 19:16:21 10° NNE
USA 186 2.5 19:16:27 35° NE 19:16:27 35° NE 19:19:09 10° N
Cosmos 1975 Rocket 3.3 19:15:56 10° N 19:20:13 46° ENE 19:22:26 25° SE
SJ-6B 2.7 19:19:08 10° SSE 19:22:54 87° WSW 19:26:47 10° NNW
Cosmos 1513 Rocket 4.5 19:17:21 10° N 19:23:48 84° E 19:30:06 10° S
NOSS 3-2 (C) 3.4 19:17:53 10° SW 19:23:55 85° SE 19:30:23 11° NE
Tiangong 2 3.5 19:27:01 10° WSW 19:28:57 15° SSW 19:29:54 13° S
Cosmos 2084 Rocket 3.7 19:25:53 10° SW 19:30:11 67° NW 19:32:33 25° NNE
BREEZE-M R/B 4.2 19:29:40 10° W 19:32:03 41° SSW 19:34:27 24° SE
Okean 1 3.1 19:28:18 10° N 19:32:20 83° E 19:35:33 15° SSE
Cosmos 1943 3.8 19:31:14 10° NNW 19:36:23 35° NE 19:37:14 33° ENE
Cosmos 1452 Rocket 4.4 19:31:52 10° NNW 19:36:58 51° WSW 19:42:02 10° S
Cosmos 1331 Rocket 4.3 19:34:25 10° NNW 19:39:31 44° ENE 19:40:19 41° E
Cosmos 44 Rocket 3.8 19:34:57 10° NW 19:39:53 60° WSW 19:43:34 18° SSE
Cosmos 405 4.5 19:36:49 10° SW 19:40:06 37° WNW 19:43:25 10° N
Tsikada Rocket 4.0 19:35:24 10° SSE 19:41:38 57° E 19:47:54 10° NNE
Meteor 1-13 Rocket 4.2 19:36:35 10° N 19:42:05 56° ENE 19:44:06 36° SE
DNEPR-1 R/B 3.8 19:38:18 10° SW 19:42:28 64° NW 19:44:55 25° NNE
Geosat 4.1 19:45:34 47° E 19:46:00 49° ESE 19:50:51 10° S
Cosmos 1378 Rocket 4.4 19:42:02 10° NNW 19:46:19 52° W 19:50:37 10° S
Spot 2 Rocket 3.4 19:44:50 40° SE 19:46:31 63° ENE 19:51:33 10° N
USA 267 3.2 19:43:26 34° ESE 19:46:36 83° NNE 19:53:10 10° NW
SJ-11-01 4.3 19:46:25 52° ESE 19:47:02 57° ENE 19:51:42 10° N
Sich 1 Rocket 3.5 19:42:56 10° S 19:47:27 88° ESE 19:51:58 10° N
Cosmos 1048 Rocket 3.9 19:43:50 10° S 19:49:06 63° ESE 19:52:14 24° NE
SL-16 R/B 3.1 19:47:15 10° NW 19:52:41 47° WSW 19:58:03 10° S
Cosmos 2227 Rocket 3.0 19:47:54 10° SW 19:53:24 51° NW 19:58:55 10° NNE
Cosmos 1782 Rocket 3.4 19:50:21 10° S 19:54:48 81° E 19:59:15 10° NNE
CENTAUR R/B 2.5 19:49:50 10° SSW 19:55:52 66° SE 19:59:08 32° NE
Iridium 4 Rocket 4.2 19:51:02 10° NNW 19:56:00 51° W 20:00:30 10° SSW
CZ-2D R/B 4.5 19:55:06 10° S 19:58:48 42° W 20:02:32 10° NNW
YAOGAN 6 3.6 20:00:36 39° NNW 20:00:36 39° NNW 20:03:00 10° NNW
Cosmos 158 Rocket 4.0 19:56:46 10° SSW 20:01:39 73° WNW 20:06:04 13° NNE
Cosmos 2297 Rocket 3.2 20:02:18 10° SW 20:07:44 46° NW 20:13:12 10° NNE
Cosmos 1603 3.6 20:05:19 10° NNW 20:11:01 90° NE 20:12:05 61° SSE
Cosmos 1939 Rocket 3.6 20:20:41 54° W 20:20:41 54° W 20:24:39 10° NNW
Thor Agena Rocket 4.2 20:17:25 10° N 20:22:23 52° WNW 20:27:17 10° SW
ATLAS 3B R/B 4.0 20:17:17 10° W 20:23:43 35° NNW 20:28:33 16° NNE
ATLAS CENTAUR R/B 3.2 20:24:35 10° NNW 20:26:29 25° NNW 20:26:29 25° NNW
Cosmos 2279 Rocket 4.3 20:24:23 10° N 20:29:17 49° NNE 20:29:17 49° NNE
Meteor 2-4 Rocket 4.0 20:32:15 10° NNW 20:38:05 67° W 20:38:59 58° SW
Cosmos 1269 Rocket 4.4 20:35:33 10° SSW 20:40:08 60° WSW 20:40:08 60° WSW
Cosmos 1634 Rocket 4.1 20:39:56 10° NNW 20:46:05 71° W 20:46:46 65° SW
CZ-4C R/B 2.7 20:40:17 10° NW 20:47:15 76° NE 20:47:20 75° NE
Resurs 01 Rocket 3.4 20:48:30 26° WSW 20:49:23 28° W 20:53:12 10° NW
H-2A R/B 3.6 20:55:12 29° N 20:55:12 29° N 20:57:48 10° N
USA 215 3.3 20:53:30 70° NNE 20:54:04 75° NNW 21:00:36 10° WSW
ARGOS 4.4 21:07:10 36° NNW 21:07:10 36° NNW 21:10:17 10° NNW
Cosmos 1943 4.4 21:15:12 10° NW 21:19:04 38° WNW 21:19:04 38° WNW
USA 267 4.3 21:30:47 36° WSW 21:30:47 36° WSW 21:36:02 10° WNW
CENTAUR R/B 3.7 21:40:55 10° W 21:46:25 41° NW 21:46:25 41° NW
ATLAS 3B R/B 4.5 22:11:01 10° NW 22:15:49 23° N 22:15:49 23° N
